Regional Weather Roundup
Issued by NWS New Orleans/Baton Rouge, LA

Home | Current Version | Previous Version | Text Only | Print | Product List | Glossary Off
Versions: 1 2 3 4 5 6 7 8 9 10 11 12 13 14 15 16 17 18 19 20 21 22 23 24 25 26 27 28 29 30 31 32 33 34 35 36 37 38 39 40 41 42 43 44 45 46 47 48 49 50

823
ASUS44 KLIX 270410
RWRLIX
NEW ORLEANS REGIONAL WEATHER ROUNDUP
NATIONAL WEATHER SERVICE NEW ORLEANS LA
1100 PM CDT TUE AUG 26 2014

NOTE: "FAIR" INDICATES FEW OR NO CLOUDS BELOW 12,000 FEET WITH NO
      SIGNIFICANT WEATHER AND/OR OBSTRUCTIONS TO VISIBILITY.
      SKY/WX - SKY CONDITION AND SIGNIFICANT WEATHER.
      TMP - AIR TEMPERATURE.     DP    - DEWPOINT TEMPERATURE.
      RH  - RELATIVE HUMIDITY.   PRES  - PRESSURE.
      HI  - HEAT INDEX.          WCI   - WIND CHILL INDEX.

*  THESE STATIONS ARE NOT NWS OR FAA STATIONS AND ARE NOT UNDER
   NWS QUALITY CONTROL.

LAZ038-040-048-061>063-065>067-069-270500-
SOUTHEAST LOUISIANA

CITY           SKY/WX    TMP DP  RH WIND       PRES   REMARKS
N.O. AUDUBON     N/A     81  76  82 MISG        N/A
N.O. INTL ARPT PTCLDY    82  72  71 CALM      29.98S
N.O. LAKEFRONT PTCLDY    83  73  72 E7        29.98S
N.O. DOWNTOWN*   N/A     82  72  69 CALM      29.98S
SLIDELL        PTCLDY    76  73  91 N3        29.98S
BATON ROUGE    CLEAR     77  74  90 CALM      29.99S
BOOTHVILLE     PTCLDY    83  77  82 E6        29.97S
BELLE CHASSE   MOCLDY    78  73  84 NE3       29.97S
BOGALUSA*        N/A     75  70  84 CALM      30.01S
GALLIANO*      NOT AVBL
NEW ROADS*       N/A     75  73  91 CALM      30.00R
GONZALES*        N/A     76  76 100 CALM      29.98S
HAMMOND*       CLEAR     77  72  83 CALM      30.01S
HOUMA*         PTCLDY    76  71  84 NE3       29.97S
PORT FOURCHON* MOCLDY    82  75  78 E9G16     29.97S

$$

MSZ070-080>082-270500-
SOUTHERN MISSISSIPPI

CITY           SKY/WX    TMP DP  RH WIND       PRES   REMARKS
MCCOMB         PTCLDY    77  65  66 VRB5      30.01S
GULFPORT       PTCLDY    79  74  84 CALM      29.98S
BILOXI         MOCLDY    80  73  79 NE5       29.98F
PASCAGOULA     MOCLDY    75  72  90 CALM      29.99S

$$

COASTAL OBSERVATIONS
LAKE AND NEARSHORE STATIONS

STATION/POSITION TIME  TEMP    WIND        PRES    WAVE
                       AIR SEA DIR/SP/G            HT/PER
                 (UTC) (F)     (DEG/KT/KT) (MB)    (FT/S)
PASCAGOULA       0400   84      60/  3/  4 1014.7
WAVELAND YACHT   0400   83      80/  4/  4 1014.7
GRAND ISLE       0400   83 85  100/  8/ 14 1015.0
SOUTHWEST PASS   0400   85 88   90/ 19/ 21 1014.6
NEW CANAL        0400   82 84   CALM  /  2 1015.5
SHELL BEACH      0400   82 81  100/  9/ 10 1014.8

OFFSHORE STATIONS

STATION/POSITION TIME  TEMP    WIND        PRES    WAVE
                       AIR SEA DIR/SP/G            HT/PER
                 (UTC) (F)     (DEG/KT/KT) (MB)    (FT/S)
64 S DAUPHIN ISL 0306   85 86   90/ 14/ 17 1014.7

$$




USA.gov is the U.S. government's official web portal to all federal, state and local government web resources and services.